�������r�C�����j�^�v���󋵏��
Date,Time,5�C6���@���p�r�C��,����,����(m/s)
2022/02/01,00:00,4.0,�k�k��,7.0
2022/02/01,00:10,4.2,�k,6.7
2022/02/01,00:20,4.3,�k,7.7
2022/02/01,00:30,4.1,�k,7.7
2022/02/01,00:40,4.1,�k,8.2
2022/02/01,00:50,4.2,�k,8.2
2022/02/01,01:00,4.0,�k�k��,7.1
2022/02/01,01:10,3.8,�k�k��,6.5
2022/02/01,01:20,4.1,�k,6.4
2022/02/01,01:30,4.1,�k,7.0
2022/02/01,01:40,4.2,�k�k��,7.6
2022/02/01,01:50,3.9,�k�k��,7.3
2022/02/01,02:00,4.1,�k�k��,7.8
2022/02/01,02:10,4.2,�k�k��,7.4
2022/02/01,02:20,4.2,�k�k��,7.0
2022/02/01,02:30,4.0,�k�k��,6.6
2022/02/01,02:40,4.1,�k�k��,6.2
2022/02/01,02:50,3.9,�k�k��,6.1
2022/02/01,03:00,4.0,�k�k��,7.5
2022/02/01,03:10,4.1,�k�k��,6.5
2022/02/01,03:20,4.0,�k�k��,7.0
2022/02/01,03:30,4.2,�k�k��,7.7
2022/02/01,03:40,4.1,�k�k��,5.3
2022/02/01,03:50,4.1,�k�k��,6.5
2022/02/01,04:00,4.2,�k�k��,4.0
2022/02/01,04:10,4.1,�k��,2.5
2022/02/01,04:20,4.0,���k��,1.4
2022/02/01,04:30,4.2,�k��,0.6
2022/02/01,04:40,4.2,�k,1.2
2022/02/01,04:50,4.1,�k�k��,2.2
2022/02/01,05:00,4.1,�k��,2.5
2022/02/01,05:10,4.1,�k��,2.9
2022/02/01,05:20,4.2,�k��,3.5
2022/02/01,05:30,4.1,�k��,3.5
2022/02/01,05:40,4.3,�k�k��,2.3
2022/02/01,05:50,4.2,�k�k��,3.2
2022/02/01,06:00,4.0,�k�k��,3.1
2022/02/01,06:10,4.1,�k,2.8
2022/02/01,06:20,3.9,�k�k��,2.6
2022/02/01,06:30,3.9,�k�k��,2.9
2022/02/01,06:40,4.1,�k�k��,2.6
2022/02/01,06:50,3.9,�k�k��,2.3
2022/02/01,07:00,4.1,�k�k��,1.7
2022/02/01,07:10,4.1,�k�k��,2.0
2022/02/01,07:20,4.2,�k��,2.5
2022/02/01,07:30,4.0,�k��,3.1
2022/02/01,07:40,4.0,���k��,3.5
2022/02/01,07:50,4.1,�k��,3.7
2022/02/01,08:00,4.1,�k��,4.1
2022/02/01,08:10,4.0,�k��,3.3
2022/02/01,08:20,4.2,�k��,3.0
2022/02/01,08:30,4.0,���k��,3.3
2022/02/01,08:40,4.1,���k��,4.0
2022/02/01,08:50,4.2,���k��,3.7
2022/02/01,09:00,4.2,�k��,4.0
2022/02/01,09:10,4.0,���k��,4.1
2022/02/01,09:20,4.0,���k��,3.8
2022/02/01,09:30,4.0,���k��,3.2
2022/02/01,09:40,3.9,�k��,3.0
2022/02/01,09:50,4.1,���k��,3.5
2022/02/01,10:00,4.1,���k��,3.8
2022/02/01,10:10,4.1,���k��,3.7
2022/02/01,10:20,4.2,���k��,3.3
2022/02/01,10:30,4.1,���k��,2.3
2022/02/01,10:40,4.0,��,3.4
2022/02/01,10:50,4.2,���k��,3.9
2022/02/01,11:00,4.2,��,3.3
2022/02/01,11:10,4.1,��,4.3
2022/02/01,11:20,4.1,��,4.1
2022/02/01,11:30,3.9,��,5.3
2022/02/01,11:40,4.1,��,5.6
2022/02/01,11:50,4.0,��,6.3
2022/02/01,12:00,4.2,��,5.1
2022/02/01,12:10,4.2,��,4.8
2022/02/01,12:20,4.0,��,4.9
2022/02/01,12:30,4.0,��,4.2
2022/02/01,12:40,4.1,��,4.2
2022/02/01,12:50,4.1,���쓌,4.0
2022/02/01,13:00,4.1,���k��,3.6
2022/02/01,13:10,4.0,���k��,3.6
2022/02/01,13:20,4.0,��,3.3
2022/02/01,13:30,4.2,���k��,3.6
2022/02/01,13:40,4.1,���k��,4.8
2022/02/01,13:50,4.1,���k��,3.7
2022/02/01,14:00,4.0,���k��,3.5
2022/02/01,14:10,4.3,���k��,3.5
2022/02/01,14:20,4.1,�k��,3.5
2022/02/01,14:30,4.1,��,3.5
2022/02/01,14:40,4.0,�k��,3.2
2022/02/01,14:50,4.2,�k��,2.6
2022/02/01,15:00,4.1,���k��,2.8
2022/02/01,15:10,4.1,���k��,3.0
2022/02/01,15:20,4.1,���k��,1.7
2022/02/01,15:30,4.0,�k��,0.8
2022/02/01,15:40,4.1,�k,0.9
2022/02/01,15:50,4.1,���k��,1.7
2022/02/01,16:00,4.1,�k�k��,2.0
2022/02/01,16:10,4.1,���k��,3.5
2022/02/01,16:20,4.1,���k��,3.0
2022/02/01,16:30,4.1,��,4.1
2022/02/01,16:40,4.1,���k��,2.0
2022/02/01,16:50,4.0,���k��,2.0
2022/02/01,17:00,4.4,���k��,2.0
2022/02/01,17:10,4.1,���k��,1.2
2022/02/01,17:20,4.1,-,CALM
2022/02/01,17:30,4.0,��,1.2
2022/02/01,17:40,4.0,�쐼,1.1
2022/02/01,17:50,4.2,��,0.6
2022/02/01,18:00,4.1,�쓌,1.2
2022/02/01,18:10,4.0,�쓌,1.2
2022/02/01,18:20,4.3,��쐼,1.1
2022/02/01,18:30,4.2,�쐼,1.2
2022/02/01,18:40,4.2,��,2.3
2022/02/01,18:50,4.1,���k��,3.0
2022/02/01,19:00,4.1,��,2.0
2022/02/01,19:10,4.1,��,2.6
2022/02/01,19:20,4.0,��,2.2
2022/02/01,19:30,4.1,��,1.4
2022/02/01,19:40,4.0,���k��,4.2
2022/02/01,19:50,4.1,�k��,5.8
2022/02/01,20:00,4.2,�k�k��,6.2
2022/02/01,20:10,4.2,�k�k��,6.5
2022/02/01,20:20,4.0,�k�k��,7.3
2022/02/01,20:30,4.0,�k�k��,7.8
2022/02/01,20:40,4.0,�k��,7.0
2022/02/01,20:50,4.0,�k�k��,5.9
2022/02/01,21:00,4.0,�k��,4.9
2022/02/01,21:10,4.1,�k��,6.3
2022/02/01,21:20,4.1,���k��,6.5
2022/02/01,21:30,4.2,���k��,6.8
2022/02/01,21:40,4.0,���k��,6.8
2022/02/01,21:50,4.1,���k��,5.5
2022/02/01,22:00,4.0,���k��,4.3
2022/02/01,22:10,4.1,�k��,3.4
2022/02/01,22:20,4.0,�k��,2.2
2022/02/01,22:30,3.8,�k�k��,2.5
2022/02/01,22:40,4.1,�k,2.3
2022/02/01,22:50,4.1,�k�k��,2.0
2022/02/01,23:00,4.2,�k�k��,2.0
2022/02/01,23:10,4.1,�k��,1.9
2022/02/01,23:20,4.1,�k��,2.2
2022/02/01,23:30,4.2,�k�k��,2.5
2022/02/01,23:40,4.4,�k�k��,3.0
2022/02/01,23:50,4.0,�k�k��,2.2
